默认 日期 大小 文件数 浏览量 最新下载 xml
monkeys磁力链接相关资源由用户搜索指令自动获取,结果来源于网络,本站不存储任何资料,亦不承担任何责任,请于24小时内删除,搜索到3103个磁力,用时7ms。
    {"12.Monkeys.S02E05.WEB-DL.XviD-FUM[ettv].avi": 365087456, "Torrent-Downloaded-from-ExtraTorrent.cc.txt": 288}
创建时间: 2018-11-23 03:59:57 大小:348.17 MB 文件数量:2 热度:7 最近下载:2023-04-18 17:50:09
    {"Downloaded from www.ETTV.tv .txt": 193, "12.Monkeys.S04E09.HDTV.x264-KILLERS[ettv].mkv": 247485317}
创建时间: 2018-11-23 04:15:25 大小:236.02 MB 文件数量:2 热度:7 最近下载:2023-04-18 18:00:14
    {"Sample": {"12.monkeys.s02e07.hdtv.x264-fleet.sample.mkv": 5256218}, "12.Monkeys.S02E07.HDTV.x264-FLEET.mkv": 215458356, "12.monkeys.s02e07.hdtv.x264-fleet.nfo": 696}
创建时间: 2018-11-23 13:26:28 大小:210.49 MB 文件数量:3 热度:7 最近下载:2023-04-18 20:30:09
    {"RARBG.com.mp4": 1016764, "RARBG.com.txt": 34, "12.Monkeys.1995.1080p.BluRay.H264.AAC-RARBG.mp4": 2653287808, "12.Monkeys.1995.1080p.BluRay.H264.AAC-RARBG.nfo": 2882}
创建时间: 2018-11-23 14:02:05 大小:2.47 GB 文件数量:4 热度:11 最近下载:2023-04-18 20:40:03
    ... GostFilm.avi": 522277664, "12.Monkeys.S04E02.400p.GostFilm.avi": ... 434488880, "12.Monkeys.S04E03.400p.GostFilm.avi": ... 394115228, "12.Monkeys.S04E04.400p.GostFilm.avi": ... GostFilm.avi": 468165916, "12.Monkeys.S04E11.400p.GostFilm.avi": 615554220 ...
创建时间: 2018-11-23 21:01:21 大小:5.03 GB 文件数量:11 热度:7 最近下载:2023-04-18 23:00:28
    {"12-505.mp3": 10142433, "04-Balaclava.mp3": 6768033, "01-Brianstorm.mp3": 6808353, "02-Teddy Picker.mp3": 6524193, "10-The Bad Thing.mp3": 5727393, "07-Do Me a Favour.mp3": 8288673, "11-Old Yellow Bricks.mp3": 7647393, "03-D is for Dangerous.mp3": 5443233 ...
创建时间: 2018-11-23 21:02:53 大小:86.13 MB 文件数量:12 热度:11 最近下载:2023-04-18 23:10:02
    {"BookmarkAndRead.txt": 116, "12.Monkeys.S01E09.720p.HDTV.x264-KILLERS.mkv": 1043771057, "12.monkeys.s01e09.720p.hdtv.x264-killers.nfo": 10871}
创建时间: 2018-11-24 00:11:59 大小:995.43 MB 文件数量:3 热度:8 最近下载:2023-04-19 00:30:02
    {"Sample": {"sample-12.monkeys.s01e09.hdtv.x264-killers.mp4": 7074523}, "12.Monkeys.S01E09.HDTV.x264-KILLERS.mp4": 307714220, "12.monkeys.s01e09.hdtv.x264-killers.nfo": 10864, "Torrent-Downloaded-From-extratorrent.cc.txt": 172}
创建时间: 2018-11-24 04:38:30 大小:300.22 MB 文件数量:4 热度:6 最近下载:2023-04-19 02:00:05
    ... ] Who the Fuck Are Arctic Monkeys [EP]": {"04 - No Buses.mp3 ... - Who The Fuck Are Arctic Monkeys.mp3": 13475968}, "[2005] I Bet ...
创建时间: 2018-11-24 11:05:51 大小:377.12 MB 文件数量:63 热度:12 最近下载:2025-01-10 07:59:04
    {"00-arctic_monkeys-humbug-2009-front.jpg": 30779, "04-arctic_monkeys-secret_door-caheso.mp3": 5535733, "07-arctic_monkeys-cornerstone-caheso.mp3": 5067330, "01-arctic_monkeys-my_propeller-caheso.mp3": 5526349, "09-arctic_monkeys-pretty_visitors-caheso.mp3 ...
创建时间: 2018-11-24 13:01:09 大小:65.87 MB 文件数量:13 热度:10 最近下载:2025-08-02 07:46:04
    ... ": 6720, "5658246920131002145411075.jpg": 122647, "Twelve.Monkeys.1995.Bluay.720p.x264.2Audio ...
创建时间: 2018-11-24 13:39:06 大小:3.92 GB 文件数量:5 热度:274 最近下载:2025-09-26 02:40:01
    {"- Kolla denna.jpg": 32098, "- www.torrentstart.nu 1.jpg": 54692, "- www.torrentstart.nu 2.jpg": 124061, "Viktigt meddelande - ny tracker öppnar.txt": 1607, "Twelve.Monkeys.1995.Swesub.DVDrip.Royskatt.avi": 1365604352}
创建时间: 2018-11-24 16:02:53 大小:1.27 GB 文件数量:5 热度:8 最近下载:2023-04-19 04:50:07
    {"Read More!!!.txt": 73, "Torrent Downloaded From ExtraTorrent.cc.txt": 446, "12.Monkeys.S02E13.HDTV.x264-FLEET[PRiME].mkv": 239849613}
创建时间: 2018-11-24 17:34:04 大小:228.74 MB 文件数量:3 热度:7 最近下载:2023-04-19 05:10:07
    {"Torrent-Downloaded-from-ExtraTorrent.cc.txt": 168, "12.Monkeys.S02E09.INTERNAL.720p.HDTV.x264-KILLERS[ettv].mkv": 774196271}
创建时间: 2018-11-24 18:47:13 大小:738.33 MB 文件数量:2 热度:6 最近下载:2023-04-19 05:30:04
    {"info.rtf": 515, "Folder.png": 128961, "C1 - 2013.flac": 55681665, "A2 - R U Mine.flac": 76914804, "A4 - Arabella.flac": 77215344, "B2 - Fireside.flac": 70295324, "B1 - Mad Sounds.flac": 76119076, "B5 - Knee Socks.flac": 91056501, "A5 - I Want It All.flac ...
创建时间: 2018-11-24 21:45:36 大小:993.96 MB 文件数量:16 热度:9 最近下载:2025-04-24 15:05:02
    ... -TORRENTS.COM.jpg": 130677, "12.Monkeys.1995.BluRay.x264.720p .YIFY ... .mp4": 789277873, "12.Monkeys.1995.BluRay.x264.720p .YIFY ...
创建时间: 2018-11-25 00:05:25 大小:752.98 MB 文件数量:6 热度:6 最近下载:2023-04-19 07:00:10
    ... torrentgalaxy.org .txt": 524, "12.Monkeys.S04E03.45.RPM.1080p.AMZN ... .264-NTG.mkv": 3091529944, "12.Monkeys.S04E03.45.RPM.1080p.AMZN ...
创建时间: 2018-11-25 04:05:03 大小:2.88 GB 文件数量:7 热度:7 最近下载:2024-12-06 18:57:02
    ... KILLERS.mkv": 782778324, "12.Monkeys.S02E09.INTERNAL.720p.HDTV.x264 ... KILLERS.mkv": 774196271, "12.Monkeys.S02E10.INTERNAL.720p.HDTV.x264 ... .mkv": 737976334, "12.Monkeys.S02E11.INTERNAL.720p.HDTV.x264 ... .mkv": 866872870, "12.Monkeys.S02E12.INTERNAL.720p.HDTV.x264 ...
创建时间: 2018-11-25 04:44:48 大小:10.01 GB 文件数量:13 热度:7 最近下载:2023-04-19 08:00:03
    {"i.nfo": 4773, "Extras": {"12monkey slide.mkv": 42573321, "12monkeys_extra1.mkv": 679623965, "12monkeys_extra2.mkv": 18736960, "greek-korean-chinese_subs.rar": 30112299}, "cover_img.jpg": 17854, "12 Monkeys [1995] 1080p.mkv": 8894361991}
创建时间: 2018-11-25 04:52:51 大小:9 GB 文件数量:7 热度:6 最近下载:2023-04-19 08:00:10
    ... .Speed.cd.txt": 97, "12.monkeys.s04e03.internal.720p.web.x264 ... -bamboozle.mkv": 866100937, "12.monkeys.s04e03.internal.720p.web.x264 ...
创建时间: 2018-11-25 08:21:55 大小:828.09 MB 文件数量:7 热度:6 最近下载:2025-08-04 05:08:01